This is the latest recevied weather packets stored in our database for station/object OK2ZAW-16. If no packets are shown the sender has not sent any weather packets the latest 1 day(s).
| Time | Temp. | Humidity | Pressure | Rain* | Wind** | Luminosity | Snow |
|---|---|---|---|---|---|---|---|
| 1778019346 | 10.56° C | 51% | 1008 hPa | - | 1.34 m/s, 270° | 130 W/m² | - |
| 1778018735 | 11.11° C | 50% | 1008.2 hPa | - | 0.89 m/s, 270° | 130 W/m² | - |
| 1778018728 | 11.11° C | 50% | 1008.2 hPa | - | 0.89 m/s, 270° | 130 W/m² | - |
| 1778018419 | 11.11° C | 50% | 1008.2 hPa | - | 0.89 m/s, 270° | 130 W/m² | - |
| 1778018110 | 11.11° C | 50% | 1008.2 hPa | - | 0.89 m/s, 270° | 130 W/m² | - |
| 1778017819 | 11.11° C | 50% | 1008.3 hPa | - | 1.34 m/s, 270° | 130 W/m² | - |
| 1778017801 | 11.11° C | 50% | 1008.3 hPa | - | 1.34 m/s, 270° | 130 W/m² | - |
| 1778017493 | 11.11° C | 50% | 1008.2 hPa | - | 1.34 m/s, 270° | 130 W/m² | - |
| 1778017184 | 11.11° C | 50% | 1008.4 hPa | - | 1.34 m/s, 270° | 130 W/m² | - |
| 1778016875 | - | - | - | - | 2.24 m/s, 270° | - | - |
| 1778016566 | 11.67° C | 50% | 1008.6 hPa | - | 2.24 m/s, 270° | 130 W/m² | - |
| 1778016257 | 11.67° C | 49% | 1008.7 hPa | - | 1.79 m/s, 270° | 130 W/m² | - |
| 1778015948 | 11.67° C | 49% | 1008.7 hPa | - | 1.34 m/s, 270° | 130 W/m² | - |
| 1778015639 | 11.67° C | 49% | 1008.8 hPa | - | 1.34 m/s, 270° | 130 W/m² | - |
| 1778015337 | 11.67° C | 49% | 1008.8 hPa | - | 1.79 m/s, 270° | 130 W/m² | - |
| 1778015330 | 11.67° C | 49% | 1008.8 hPa | - | 1.79 m/s, 270° | 130 W/m² | - |
| 1778015021 | 12.22° C | 49% | 1008.8 hPa | - | 0.89 m/s, 270° | 130 W/m² | - |
| 1778014712 | 12.22° C | 49% | 1008.9 hPa | - | 1.79 m/s, 270° | 130 W/m² | - |
| 1778014403 | 12.22° C | 48% | 1008.9 hPa | - | 2.24 m/s, 270° | 130 W/m² | - |
| 1778014130 | 12.78° C | 48% | 1008.9 hPa | - | 1.79 m/s, 270° | 130 W/m² | - |
| 1778014094 | 12.78° C | 48% | 1008.9 hPa | - | 1.79 m/s, 270° | 130 W/m² | - |
| 1778013476 | 12.78° C | 48% | 1008.8 hPa | - | 1.34 m/s, 270° | 130 W/m² | - |
| 1778013167 | 12.78° C | 48% | 1008.8 hPa | - | 1.79 m/s, 270° | 131 W/m² | - |
| 1778012858 | 13.33° C | 47% | 1008.7 hPa | - | 1.34 m/s, 270° | 131 W/m² | - |
| 1778012240 | 13.33° C | 47% | 1008.7 hPa | - | 1.34 m/s, 270° | 131 W/m² | - |
* Rain since midnight (hover to see other rain measurements)
** Current wind speed in m/s (hover to see current wind gust speed)